Time,TemperatureF,DewpointF,PressureIn,WindDirection,WindDirectionDegrees,WindSpeedMPH,WindSpeedGustMPH,Humidity,HourlyPrecipIn,Conditions,Clouds,dailyrainin,SoftwareType,DateUTC
2013-05-21 00:00:00,58.1,10.6,29.85,WSW,257,0.0,0.0,15,0.00,,,0.00,Wunderground v.1.15,2013-05-21 07:00:00,
2013-05-21 00:06:00,56.7,10.9,29.84,WSW,253,0.0,0.0,16,0.00,,,0.00,Wunderground v.1.15,2013-05-21 07:06:00,
2013-05-21 00:12:00,55.9,11.6,29.84,WSW,244,0.0,1.0,17,0.00,,,0.00,Wunderground v.1.15,2013-05-21 07:12:00,
2013-05-21 00:18:00,55.2,12.4,29.85,WSW,239,0.0,1.0,18,0.00,,,0.00,Wunderground v.1.15,2013-05-21 07:18:00,
2013-05-21 00:24:00,55.8,16.4,29.84,SW,236,0.0,0.0,21,0.00,,,0.00,Wunderground v.1.15,2013-05-21 07:24:00,
2013-05-21 00:29:00,56.9,19.4,29.84,SW,220,0.0,0.0,23,0.00,,,0.00,Wunderground v.1.15,2013-05-21 07:29:00,
2013-05-21 00:35:00,57.0,22.4,29.84,SW,225,0.0,0.0,26,0.00,,,0.00,Wunderground v.1.15,2013-05-21 07:35:00,
2013-05-21 00:41:00,56.8,24.0,29.84,SW,220,0.0,0.0,28,0.00,,,0.00,Wunderground v.1.15,2013-05-21 07:41:00,
2013-05-21 00:46:00,57.3,23.6,29.83,SW,225,0.0,0.0,27,0.00,,,0.00,Wunderground v.1.15,2013-05-21 07:46:00,
2013-05-21 00:52:00,57.2,24.3,29.83,SW,216,0.0,0.0,28,0.00,,,0.00,Wunderground v.1.15,2013-05-21 07:52:00,
2013-05-21 00:57:00,56.7,25.6,29.83,SW,220,0.0,0.0,30,0.00,,,0.00,Wunderground v.1.15,2013-05-21 07:57:00,
2013-05-21 01:02:00,56.1,27.4,29.83,West,259,0.0,0.0,33,0.00,,,0.00,Wunderground v.1.15,2013-05-21 08:02:00,
2013-05-21 01:08:00,56.2,27.4,29.83,SW,214,0.0,0.0,33,0.00,,,0.00,Wunderground v.1.15,2013-05-21 08:08:00,
2013-05-21 01:14:00,55.7,27.0,29.82,SW,236,0.0,0.0,33,0.00,,,0.00,Wunderground v.1.15,2013-05-21 08:14:00,
2013-05-21 01:20:00,55.5,27.6,29.82,SW,231,0.0,2.0,34,0.00,,,0.00,Wunderground v.1.15,2013-05-21 08:20:00,
2013-05-21 01:26:00,54.7,25.4,29.82,WSW,251,0.0,2.0,32,0.00,,,0.00,Wunderground v.1.15,2013-05-21 08:26:00,
2013-05-21 01:31:00,54.1,23.3,29.82,WSW,245,0.0,0.0,30,0.00,,,0.00,Wunderground v.1.15,2013-05-21 08:31:00,
2013-05-21 01:37:00,54.1,23.3,29.81,WSW,244,0.0,0.0,30,0.00,,,0.00,Wunderground v.1.15,2013-05-21 08:37:00,
2013-05-21 01:43:00,54.2,24.2,29.81,WSW,243,0.0,0.0,31,0.00,,,0.00,Wunderground v.1.15,2013-05-21 08:43:00,
2013-05-21 01:49:00,54.9,23.2,29.81,WSW,238,0.0,0.0,29,0.00,,,0.00,Wunderground v.1.15,2013-05-21 08:49:00,
2013-05-21 01:55:00,55.4,22.8,29.80,SW,225,0.0,0.0,28,0.00,,,0.00,Wunderground v.1.15,2013-05-21 08:55:00,
2013-05-21 02:00:00,55.5,23.7,29.80,WSW,239,0.0,0.0,29,0.00,,,0.00,Wunderground v.1.15,2013-05-21 09:00:00,
2013-05-21 02:05:00,55.3,24.4,29.80,WSW,243,0.0,0.0,30,0.00,,,0.00,Wunderground v.1.15,2013-05-21 09:05:00,
2013-05-21 02:11:00,55.3,22.7,29.80,SW,230,0.0,0.0,28,0.00,,,0.00,Wunderground v.1.15,2013-05-21 09:11:00,
2013-05-21 02:17:00,55.5,22.9,29.80,WSW,252,0.0,0.0,28,0.00,,,0.00,Wunderground v.1.15,2013-05-21 09:17:00,
2013-05-21 02:22:00,55.4,25.2,29.80,WSW,238,0.0,0.0,31,0.00,,,0.00,Wunderground v.1.15,2013-05-21 09:22:00,
2013-05-21 02:28:00,55.3,25.9,29.80,WSW,252,0.0,0.0,32,0.00,,,0.00,Wunderground v.1.15,2013-05-21 09:28:00,
2013-05-21 02:34:00,55.2,26.6,29.79,SW,230,0.0,0.0,33,0.00,,,0.00,Wunderground v.1.15,2013-05-21 09:34:00,
2013-05-21 02:40:00,56.1,27.4,29.79,SSW,210,0.0,0.0,33,0.00,,,0.00,Wunderground v.1.15,2013-05-21 09:40:00,
2013-05-21 02:45:00,56.8,27.2,29.79,SSW,213,0.0,0.0,32,0.00,,,0.00,Wunderground v.1.15,2013-05-21 09:45:00,
2013-05-21 02:51:00,57.0,27.4,29.79,SW,218,0.0,0.0,32,0.00,,,0.00,Wunderground v.1.15,2013-05-21 09:51:00,
2013-05-21 02:57:00,56.7,27.1,29.79,West,269,0.0,0.0,32,0.00,,,0.00,Wunderground v.1.15,2013-05-21 09:57:00,
2013-05-21 03:03:00,55.5,24.5,29.78,West,264,0.0,0.0,30,0.00,,,0.00,Wunderground v.1.15,2013-05-21 10:03:00,
2013-05-21 03:09:00,55.0,24.9,29.78,WSW,247,0.0,0.0,31,0.00,,,0.00,Wunderground v.1.15,2013-05-21 10:09:00,
2013-05-21 03:15:00,54.8,23.1,29.78,West,276,0.0,0.0,29,0.00,,,0.00,Wunderground v.1.15,2013-05-21 10:15:00,
2013-05-21 03:21:00,55.8,24.0,29.77,WSW,242,0.0,0.0,29,0.00,,,0.00,Wunderground v.1.15,2013-05-21 10:21:00,
2013-05-21 03:27:00,57.8,23.1,29.77,WSW,257,0.0,0.0,26,0.00,,,0.00,Wunderground v.1.15,2013-05-21 10:27:00,
2013-05-21 03:33:00,58.5,20.8,29.77,WSW,244,0.0,0.0,23,0.00,,,0.00,Wunderground v.1.15,2013-05-21 10:33:00,
2013-05-21 03:39:00,59.2,19.2,29.77,WSW,245,0.0,0.0,21,0.00,,,0.00,Wunderground v.1.15,2013-05-21 10:39:00,
2013-05-21 03:45:00,59.1,20.2,29.77,WSW,248,0.0,0.0,22,0.00,,,0.00,Wunderground v.1.15,2013-05-21 10:45:00,
2013-05-21 03:51:00,58.6,19.8,29.77,WSW,249,0.0,0.0,22,0.00,,,0.00,Wunderground v.1.15,2013-05-21 10:51:00,
2013-05-21 03:56:00,58.2,20.5,29.76,West,267,0.0,0.0,23,0.00,,,0.00,Wunderground v.1.15,2013-05-21 10:56:00,
2013-05-21 04:02:00,57.9,19.2,29.76,WSW,250,0.0,0.0,22,0.00,,,0.00,Wunderground v.1.15,2013-05-21 11:02:00,
2013-05-21 04:08:00,57.9,22.2,29.76,West,271,0.0,0.0,25,0.00,,,0.00,Wunderground v.1.15,2013-05-21 11:08:00,
2013-05-21 04:14:00,57.8,21.2,29.76,WNW,282,0.0,2.0,24,0.00,,,0.00,Wunderground v.1.15,2013-05-21 11:14:00,
2013-05-21 04:20:00,58.5,22.8,29.76,WSW,239,2.0,2.0,25,0.00,,,0.00,Wunderground v.1.15,2013-05-21 11:20:00,
2013-05-21 04:26:00,59.5,22.6,29.76,WSW,238,2.0,7.0,24,0.00,,,0.00,Wunderground v.1.15,2013-05-21 11:26:00,
2013-05-21 04:32:00,59.9,22.0,29.76,West,259,1.0,1.0,23,0.00,,,0.00,Wunderground v.1.15,2013-05-21 11:32:00,
2013-05-21 04:38:00,60.5,24.5,29.76,WSW,245,0.0,1.0,25,0.00,,,0.00,Wunderground v.1.15,2013-05-21 11:38:00,
2013-05-21 04:44:00,61.0,24.9,29.75,SW,233,0.0,0.0,25,0.00,,,0.00,Wunderground v.1.15,2013-05-21 11:44:00,
2013-05-21 04:50:00,61.1,24.0,29.75,SW,231,0.0,0.0,24,0.00,,,0.00,Wunderground v.1.15,2013-05-21 11:50:00,
2013-05-21 04:56:00,60.5,23.5,29.75,WSW,240,0.0,0.0,24,0.00,,,0.00,Wunderground v.1.15,2013-05-21 11:56:00,
2013-05-21 05:02:00,60.5,23.5,29.75,WSW,243,0.0,0.0,24,0.00,,,0.00,Wunderground v.1.15,2013-05-21 12:02:00,
2013-05-21 05:08:00,60.7,23.7,29.75,WSW,244,0.0,0.0,24,0.00,,,0.00,Wunderground v.1.15,2013-05-21 12:08:00,
2013-05-21 05:13:00,60.9,23.8,29.75,SW,231,0.0,0.0,24,0.00,,,0.00,Wunderground v.1.15,2013-05-21 12:13:00,
2013-05-21 05:19:00,59.9,25.8,29.75,NE,55,0.0,0.0,27,0.00,,,0.00,Wunderground v.1.15,2013-05-21 12:19:00,
2013-05-21 05:25:00,58.3,25.3,29.75,ENE,58,0.0,0.0,28,0.00,,,0.00,Wunderground v.1.15,2013-05-21 12:25:00,
2013-05-21 05:30:00,57.6,25.5,29.75,NNE,30,0.0,0.0,29,0.00,,,0.00,Wunderground v.1.15,2013-05-21 12:30:00,
2013-05-21 05:36:00,58.0,24.2,29.75,West,280,0.0,3.0,27,0.00,,,0.00,Wunderground v.1.15,2013-05-21 12:36:00,
2013-05-21 05:42:00,58.4,24.5,29.74,West,262,1.0,3.0,27,0.00,,,0.00,Wunderground v.1.15,2013-05-21 12:42:00,
2013-05-21 05:47:00,58.4,24.5,29.75,West,262,3.0,3.0,27,0.00,,,0.00,Wunderground v.1.15,2013-05-21 12:47:00,
2013-05-21 05:53:00,-999.9,-99.9,29.74,North,32767,-999.0,0.0,255,-99.99,,,0.00,Wunderground v.1.15,2013-05-21 12:53:00,
2013-05-21 05:58:00,-999.9,-99.9,29.74,North,32767,-999.0,0.0,255,-99.99,,,0.00,Wunderground v.1.15,2013-05-21 12:58:00,
2013-05-21 06:04:00,-999.9,-99.9,29.74,North,32767,-999.0,0.0,255,-99.99,,,0.00,Wunderground v.1.15,2013-05-21 13:04:00,
2013-05-21 06:10:00,-999.9,-99.9,29.73,North,32767,-999.0,0.0,255,-99.99,,,0.00,Wunderground v.1.15,2013-05-21 13:10:00,
2013-05-21 06:15:00,-999.9,-99.9,29.73,North,32767,-999.0,0.0,255,-99.99,,,0.00,Wunderground v.1.15,2013-05-21 13:15:00,
2013-05-21 06:20:00,-999.9,-99.9,29.73,North,32767,-999.0,0.0,255,-99.99,,,0.00,Wunderground v.1.15,2013-05-21 13:20:00,
2013-05-21 06:26:00,-999.9,-99.9,29.73,North,32767,-999.0,0.0,255,-99.99,,,0.00,Wunderground v.1.15,2013-05-21 13:26:00,
2013-05-21 06:32:00,-999.9,-99.9,29.73,North,32767,-999.0,0.0,255,-99.99,,,0.00,Wunderground v.1.15,2013-05-21 13:32:00,
2013-05-21 06:37:00,-999.9,-99.9,29.72,North,32767,-999.0,0.0,255,-99.99,,,0.00,Wunderground v.1.15,2013-05-21 13:37:00,
2013-05-21 06:43:00,-999.9,-99.9,29.73,North,32767,-999.0,0.0,255,-99.99,,,0.00,Wunderground v.1.15,2013-05-21 13:43:00,
2013-05-21 06:49:00,-999.9,-99.9,29.73,North,32767,-999.0,0.0,255,-99.99,,,0.00,Wunderground v.1.15,2013-05-21 13:49:00,
2013-05-21 06:54:00,-999.9,-99.9,29.73,North,32767,-999.0,0.0,255,-99.99,,,0.00,Wunderground v.1.15,2013-05-21 13:54:00,
2013-05-21 07:00:00,58.1,26.0,29.73,ESE,102,0.0,0.0,29,0.00,,,0.00,Wunderground v.1.15,2013-05-21 14:00:00,
2013-05-21 07:05:00,58.4,25.4,29.73,SE,146,0.0,0.0,28,0.00,,,0.00,Wunderground v.1.15,2013-05-21 14:05:00,
2013-05-21 07:11:00,58.3,25.3,29.73,SSE,154,0.0,0.0,28,0.00,,,0.00,Wunderground v.1.15,2013-05-21 14:11:00,
2013-05-21 07:17:00,58.0,25.0,29.73,ESE,123,0.0,0.0,28,0.00,,,0.00,Wunderground v.1.15,2013-05-21 14:17:00,
2013-05-21 07:23:00,58.0,25.9,29.73,SSE,148,0.0,0.0,29,0.00,,,0.00,Wunderground v.1.15,2013-05-21 14:23:00,
2013-05-21 07:29:00,58.5,28.7,29.73,SSW,212,0.0,0.0,32,0.00,,,0.00,Wunderground v.1.15,2013-05-21 14:29:00,
2013-05-21 07:35:00,60.0,30.8,29.72,SSW,206,0.0,0.0,33,0.00,,,0.00,Wunderground v.1.15,2013-05-21 14:35:00,
2013-05-21 07:40:00,60.8,31.5,29.72,South,175,0.0,0.0,33,0.00,,,0.00,Wunderground v.1.15,2013-05-21 14:40:00,
2013-05-21 07:46:00,59.8,28.3,29.72,SE,124,0.0,1.0,30,0.00,,,0.00,Wunderground v.1.15,2013-05-21 14:46:00,
2013-05-21 07:52:00,59.1,28.5,29.72,East,101,0.0,0.0,31,0.00,,,0.00,Wunderground v.1.15,2013-05-21 14:52:00,
2013-05-21 07:57:00,59.5,30.3,29.72,ESE,115,0.0,0.0,33,0.00,,,0.00,Wunderground v.1.15,2013-05-21 14:57:00,
2013-05-21 08:03:00,60.2,30.2,29.72,SE,131,0.0,0.0,32,0.00,,,0.00,Wunderground v.1.15,2013-05-21 15:03:00,
2013-05-21 08:09:00,61.2,30.3,29.73,SSE,158,0.0,0.0,31,0.00,,,0.00,Wunderground v.1.15,2013-05-21 15:09:00,
2013-05-21 08:15:00,62.5,30.6,29.72,SSE,149,0.0,0.0,30,0.00,,,0.00,Wunderground v.1.15,2013-05-21 15:15:00,
2013-05-21 08:21:00,63.3,28.7,29.72,SE,138,0.0,0.0,27,0.00,,,0.00,Wunderground v.1.15,2013-05-21 15:21:00,
2013-05-21 08:27:00,64.3,28.7,29.72,SSE,147,0.0,2.0,26,0.00,,,0.00,Wunderground v.1.15,2013-05-21 15:27:00,
2013-05-21 08:33:00,65.2,28.5,29.72,South,189,0.0,0.0,25,0.00,,,0.00,Wunderground v.1.15,2013-05-21 15:33:00,
2013-05-21 08:39:00,65.8,28.0,29.72,South,188,0.0,0.0,24,0.00,,,0.00,Wunderground v.1.15,2013-05-21 15:39:00,
2013-05-21 08:45:00,65.8,28.0,29.72,SSE,164,0.0,0.0,24,0.00,,,0.00,Wunderground v.1.15,2013-05-21 15:45:00,
2013-05-21 08:51:00,65.4,26.6,29.72,SE,125,0.0,0.0,23,0.00,,,0.00,Wunderground v.1.15,2013-05-21 15:51:00,
2013-05-21 08:57:00,65.3,26.5,29.72,SE,139,0.0,0.0,23,0.00,,,0.00,Wunderground v.1.15,2013-05-21 15:57:00,
2013-05-21 09:03:00,65.3,24.3,29.72,SSE,166,0.0,0.0,21,0.00,,,0.00,Wunderground v.1.15,2013-05-21 16:03:00,
2013-05-21 09:09:00,65.6,24.6,29.72,SW,221,0.0,0.0,21,0.00,,,0.00,Wunderground v.1.15,2013-05-21 16:09:00,
2013-05-21 09:15:00,66.2,23.9,29.72,South,185,0.0,0.0,20,0.00,,,0.00,Wunderground v.1.15,2013-05-21 16:15:00,
2013-05-21 09:21:00,66.4,24.1,29.70,SE,139,0.0,0.0,20,0.00,,,0.00,Wunderground v.1.15,2013-05-21 16:21:00,
2013-05-21 09:27:00,66.5,25.3,29.71,SE,135,0.0,0.0,21,0.00,,,0.00,Wunderground v.1.15,2013-05-21 16:27:00,
2013-05-21 09:32:00,66.5,25.3,29.70,South,169,0.0,0.0,21,0.00,,,0.00,Wunderground v.1.15,2013-05-21 16:32:00,
2013-05-21 09:38:00,67.2,24.7,29.70,SSE,161,0.0,0.0,20,0.00,,,0.00,Wunderground v.1.15,2013-05-21 16:38:00,
2013-05-21 09:43:00,68.6,25.9,29.70,SSW,193,0.0,0.0,20,0.00,,,0.00,Wunderground v.1.15,2013-05-21 16:43:00,
2013-05-21 09:49:00,69.6,25.5,29.70,WSW,238,0.0,0.0,19,0.00,,,0.00,Wunderground v.1.15,2013-05-21 16:49:00,
2013-05-21 09:55:00,70.5,22.1,29.69,SSW,202,0.0,0.0,16,0.00,,,0.00,Wunderground v.1.15,2013-05-21 16:55:00,
2013-05-21 10:00:00,71.0,22.5,29.69,SW,220,0.0,0.0,16,0.00,,,0.00,Wunderground v.1.15,2013-05-21 17:00:00,
2013-05-21 10:05:00,71.2,17.8,29.69,SSW,204,0.0,0.0,13,0.00,,,0.00,Wunderground v.1.15,2013-05-21 17:05:00,
2013-05-21 10:11:00,71.2,17.8,29.68,SW,214,0.0,0.0,13,0.00,,,0.00,Wunderground v.1.15,2013-05-21 17:11:00,
2013-05-21 10:17:00,71.6,18.1,29.68,SSW,193,0.0,0.0,13,0.00,,,0.00,Wunderground v.1.15,2013-05-21 17:17:00,
2013-05-21 10:23:00,72.1,16.6,29.67,SE,135,0.0,0.0,12,0.00,,,0.00,Wunderground v.1.15,2013-05-21 17:23:00,
2013-05-21 10:29:00,72.7,17.1,29.67,SSW,210,0.0,0.0,12,0.00,,,0.00,Wunderground v.1.15,2013-05-21 17:29:00,
2013-05-21 10:35:00,73.4,13.5,29.66,SSE,149,0.0,0.0,10,0.00,,,0.00,Wunderground v.1.15,2013-05-21 17:35:00,
2013-05-21 10:41:00,74.1,16.2,29.66,SSE,160,0.0,0.0,11,0.00,,,0.00,Wunderground v.1.15,2013-05-21 17:41:00,
2013-05-21 10:47:00,74.7,18.7,29.65,SSW,209,0.0,0.0,12,0.00,,,0.00,Wunderground v.1.15,2013-05-21 17:47:00,
2013-05-21 10:53:00,75.8,17.5,29.65,SSW,202,0.0,0.0,11,0.00,,,0.00,Wunderground v.1.15,2013-05-21 17:53:00,
2013-05-21 10:59:00,77.1,16.3,29.64,SSW,204,0.0,0.0,10,0.00,,,0.00,Wunderground v.1.15,2013-05-21 17:59:00,
2013-05-21 11:05:00,77.7,16.7,29.64,SSE,156,0.0,0.0,10,0.00,,,0.00,Wunderground v.1.15,2013-05-21 18:05:00,
2013-05-21 11:10:00,77.6,16.7,29.64,SW,234,0.0,0.0,10,0.00,,,0.00,Wunderground v.1.15,2013-05-21 18:10:00,
2013-05-21 11:16:00,77.0,16.2,29.64,SW,227,0.0,0.0,10,0.00,,,0.00,Wunderground v.1.15,2013-05-21 18:16:00,
2013-05-21 11:22:00,78.1,19.3,29.63,WSW,237,0.0,0.0,11,0.00,,,0.00,Wunderground v.1.15,2013-05-21 18:22:00,
2013-05-21 11:28:00,77.9,21.2,29.63,SW,214,0.0,0.0,12,0.00,,,0.00,Wunderground v.1.15,2013-05-21 18:28:00,
2013-05-21 11:34:00,77.9,21.2,29.63,SW,236,0.0,0.0,12,0.00,,,0.00,Wunderground v.1.15,2013-05-21 18:34:00,
2013-05-21 11:40:00,77.9,21.2,29.62,WSW,247,0.0,0.0,12,0.00,,,0.00,Wunderground v.1.15,2013-05-21 18:40:00,
2013-05-21 11:46:00,78.2,21.4,29.62,SW,223,0.0,0.0,12,0.00,,,0.00,Wunderground v.1.15,2013-05-21 18:46:00,
2013-05-21 11:52:00,78.6,21.7,29.62,WSW,240,0.0,0.0,12,0.00,,,0.00,Wunderground v.1.15,2013-05-21 18:52:00,
2013-05-21 11:58:00,78.8,23.8,29.62,SW,226,0.0,0.0,13,0.00,,,0.00,Wunderground v.1.15,2013-05-21 18:58:00,
2013-05-21 12:04:00,78.9,21.9,29.62,WSW,255,0.0,0.0,12,0.00,,,0.00,Wunderground v.1.15,2013-05-21 19:04:00,
2013-05-21 12:09:00,78.6,23.6,29.62,SW,236,0.0,0.0,13,0.00,,,0.00,Wunderground v.1.15,2013-05-21 19:09:00,
2013-05-21 12:15:00,78.8,23.8,29.62,SW,223,0.0,0.0,13,0.00,,,0.00,Wunderground v.1.15,2013-05-21 19:15:00,
2013-05-21 12:21:00,78.8,23.8,29.61,SW,221,0.0,0.0,13,0.00,,,0.00,Wunderground v.1.15,2013-05-21 19:21:00,
2013-05-21 12:27:00,78.8,23.8,29.61,SSW,200,0.0,0.0,13,0.00,,,0.00,Wunderground v.1.15,2013-05-21 19:27:00,
2013-05-21 12:33:00,78.5,25.3,29.60,SW,223,0.0,0.0,14,0.00,,,0.00,Wunderground v.1.15,2013-05-21 19:33:00,
2013-05-21 12:39:00,78.7,23.7,29.60,SW,226,0.0,0.0,13,0.00,,,0.00,Wunderground v.1.15,2013-05-21 19:39:00,
2013-05-21 12:45:00,78.9,25.6,29.59,SW,230,0.0,0.0,14,0.00,,,0.00,Wunderground v.1.15,2013-05-21 19:45:00,
2013-05-21 12:51:00,79.3,24.2,29.59,SW,227,0.0,0.0,13,0.00,,,0.00,Wunderground v.1.15,2013-05-21 19:51:00,
2013-05-21 12:57:00,78.9,25.6,29.60,West,264,0.0,0.0,14,0.00,,,0.00,Wunderground v.1.15,2013-05-21 19:57:00,
2013-05-21 13:03:00,79.6,26.2,29.60,SSW,213,0.0,0.0,14,0.00,,,0.00,Wunderground v.1.15,2013-05-21 20:03:00,
2013-05-21 13:08:00,79.3,24.2,29.59,SSW,212,0.0,0.0,13,0.00,,,0.00,Wunderground v.1.15,2013-05-21 20:08:00,
2013-05-21 13:14:00,79.1,25.8,29.59,SSW,210,0.0,0.0,14,0.00,,,0.00,Wunderground v.1.15,2013-05-21 20:14:00,
2013-05-21 13:20:00,79.7,24.5,29.58,SSW,212,10.0,18.0,13,0.00,,,0.00,Wunderground v.1.15,2013-05-21 20:20:00,
2013-05-21 13:26:00,79.3,24.2,29.59,WSW,251,21.0,31.0,13,0.00,,,0.00,Wunderground v.1.15,2013-05-21 20:26:00,
2013-05-21 13:32:00,79.0,23.9,29.59,SW,231,23.0,23.0,13,0.00,,,0.00,Wunderground v.1.15,2013-05-21 20:32:00,
2013-05-21 13:38:00,79.4,24.2,29.58,SSW,210,22.0,31.0,13,0.00,,,0.00,Wunderground v.1.15,2013-05-21 20:38:00,
2013-05-21 13:44:00,79.3,24.2,29.58,SW,226,23.0,28.0,13,0.00,,,0.00,Wunderground v.1.15,2013-05-21 20:44:00,
2013-05-21 13:50:00,79.4,22.3,29.58,WSW,252,23.0,27.0,12,0.00,,,0.00,Wunderground v.1.15,2013-05-21 20:50:00,
2013-05-21 13:56:00,78.8,23.8,29.59,WSW,253,23.0,33.0,13,0.00,,,0.00,Wunderground v.1.15,2013-05-21 20:56:00,
2013-05-21 14:02:00,79.6,22.5,29.58,WSW,253,23.0,27.0,12,0.00,,,0.00,Wunderground v.1.15,2013-05-21 21:02:00,
2013-05-21 14:08:00,79.2,20.1,29.58,WSW,247,24.0,30.0,11,0.00,,,0.00,Wunderground v.1.15,2013-05-21 21:08:00,
2013-05-21 14:14:00,78.5,23.5,29.59,SW,236,25.0,30.0,13,0.00,,,0.00,Wunderground v.1.15,2013-05-21 21:14:00,
2013-05-21 14:20:00,78.8,21.9,29.58,SW,230,25.0,25.0,12,0.00,,,0.00,Wunderground v.1.15,2013-05-21 21:20:00,
2013-05-21 14:26:00,78.9,19.9,29.58,WSW,242,24.0,31.0,11,0.00,,,0.00,Wunderground v.1.15,2013-05-21 21:26:00,
2013-05-21 14:32:00,78.5,19.6,29.58,SW,231,23.0,27.0,11,0.00,,,0.00,Wunderground v.1.15,2013-05-21 21:32:00,
2013-05-21 14:38:00,78.1,19.3,29.58,WSW,248,25.0,31.0,11,0.00,,,0.00,Wunderground v.1.15,2013-05-21 21:38:00,
2013-05-21 14:44:00,78.2,19.3,29.58,WSW,243,25.0,32.0,11,0.00,,,0.00,Wunderground v.1.15,2013-05-21 21:44:00,
2013-05-21 14:49:00,78.1,19.3,29.58,WSW,237,23.0,32.0,11,0.00,,,0.00,Wunderground v.1.15,2013-05-21 21:49:00,
2013-05-21 14:55:00,78.2,21.4,29.57,WSW,243,24.0,31.0,12,0.00,,,0.00,Wunderground v.1.15,2013-05-21 21:55:00,
2013-05-21 15:00:00,77.7,19.0,29.58,WSW,247,26.0,26.0,11,0.00,,,0.00,Wunderground v.1.15,2013-05-21 22:00:00,
2013-05-21 15:06:00,77.7,22.9,29.57,SW,226,12.0,26.0,13,0.00,,,0.00,Wunderground v.1.15,2013-05-21 22:06:00,
2013-05-21 15:12:00,77.5,20.8,29.56,SW,220,0.0,1.0,12,0.00,,,0.00,Wunderground v.1.15,2013-05-21 22:12:00,
2013-05-21 15:18:00,77.5,18.8,29.57,SW,223,0.0,1.0,11,0.00,,,0.00,Wunderground v.1.15,2013-05-21 22:18:00,
2013-05-21 15:23:00,77.9,19.1,29.56,WSW,243,0.0,0.0,11,0.00,,,0.00,Wunderground v.1.15,2013-05-21 22:23:00,
2013-05-21 15:29:00,77.8,16.8,29.57,SW,227,0.0,0.0,10,0.00,,,0.00,Wunderground v.1.15,2013-05-21 22:29:00,
2013-05-21 15:35:00,77.7,19.0,29.56,SW,236,0.0,0.0,11,0.00,,,0.00,Wunderground v.1.15,2013-05-21 22:35:00,
2013-05-21 15:41:00,77.9,21.2,29.56,WSW,247,0.0,0.0,12,0.00,,,0.00,Wunderground v.1.15,2013-05-21 22:41:00,
2013-05-21 15:47:00,77.4,18.7,29.56,SW,217,0.0,0.0,11,0.00,,,0.00,Wunderground v.1.15,2013-05-21 22:47:00,
2013-05-21 15:53:00,77.5,20.8,29.56,SW,232,0.0,0.0,12,0.00,,,0.00,Wunderground v.1.15,2013-05-21 22:53:00,
2013-05-21 15:59:00,77.2,18.6,29.55,WSW,243,0.0,0.0,11,0.00,,,0.00,Wunderground v.1.15,2013-05-21 22:59:00,
2013-05-21 16:05:00,77.7,19.0,29.55,SW,226,0.0,0.0,11,0.00,,,0.00,Wunderground v.1.15,2013-05-21 23:05:00,
2013-05-21 16:11:00,77.3,16.4,29.54,SW,236,0.0,0.0,10,0.00,,,0.00,Wunderground v.1.15,2013-05-21 23:11:00,
2013-05-21 16:17:00,77.5,18.8,29.55,SW,227,0.0,0.0,11,0.00,,,0.00,Wunderground v.1.15,2013-05-21 23:17:00,
2013-05-21 16:23:00,77.4,16.5,29.55,SW,228,0.0,0.0,10,0.00,,,0.00,Wunderground v.1.15,2013-05-21 23:23:00,
2013-05-21 16:29:00,76.8,16.1,29.55,SW,217,0.0,0.0,10,0.00,,,0.00,Wunderground v.1.15,2013-05-21 23:29:00,
2013-05-21 16:35:00,76.7,18.2,29.55,SW,234,0.0,0.0,11,0.00,,,0.00,Wunderground v.1.15,2013-05-21 23:35:00,
2013-05-21 16:41:00,76.3,17.9,29.55,SW,233,0.0,0.0,11,0.00,,,0.00,Wunderground v.1.15,2013-05-21 23:41:00,
2013-05-21 16:46:00,76.4,20.0,29.55,West,260,0.0,0.0,12,0.00,,,0.00,Wunderground v.1.15,2013-05-21 23:46:00,
2013-05-21 16:52:00,76.8,18.3,29.55,WSW,250,0.0,0.0,11,0.00,,,0.00,Wunderground v.1.15,2013-05-21 23:52:00,
2013-05-21 16:58:00,76.4,20.0,29.55,WSW,248,0.0,0.0,12,0.00,,,0.00,Wunderground v.1.15,2013-05-21 23:58:00,
2013-05-21 17:04:00,76.0,19.7,29.55,SW,217,0.0,0.0,12,0.00,,,0.00,Wunderground v.1.15,2013-05-22 00:04:00,
2013-05-21 17:10:00,75.7,19.4,29.55,SW,229,0.0,0.0,12,0.00,,,0.00,Wunderground v.1.15,2013-05-22 00:10:00,
2013-05-21 17:16:00,75.6,17.3,29.54,WSW,241,0.0,0.0,11,0.00,,,0.00,Wunderground v.1.15,2013-05-22 00:16:00,
2013-05-21 17:22:00,75.3,17.1,29.54,SW,224,0.0,0.0,11,0.00,,,0.00,Wunderground v.1.15,2013-05-22 00:22:00,
2013-05-21 17:27:00,75.5,17.3,29.55,WSW,254,0.0,0.0,11,0.00,,,0.00,Wunderground v.1.15,2013-05-22 00:27:00,
2013-05-21 17:33:00,75.3,19.1,29.55,WSW,244,0.0,0.0,12,0.00,,,0.00,Wunderground v.1.15,2013-05-22 00:33:00,
2013-05-21 17:39:00,75.1,17.0,29.54,WSW,242,0.0,0.0,11,0.00,,,0.00,Wunderground v.1.15,2013-05-22 00:39:00,
2013-05-21 17:45:00,74.6,18.6,29.55,SW,233,0.0,0.0,12,0.00,,,0.00,Wunderground v.1.15,2013-05-22 00:45:00,
2013-05-21 17:51:00,74.6,16.6,29.55,WSW,243,0.0,0.0,11,0.00,,,0.00,Wunderground v.1.15,2013-05-22 00:51:00,
2013-05-21 17:57:00,74.2,14.1,29.55,WSW,241,0.0,0.0,10,0.00,,,0.00,Wunderground v.1.15,2013-05-22 00:57:00,
2013-05-21 18:03:00,74.3,14.1,29.55,WSW,237,0.0,0.0,10,0.00,,,0.00,Wunderground v.1.15,2013-05-22 01:03:00,
2013-05-21 18:09:00,74.1,14.0,29.55,SW,231,0.0,0.0,10,0.00,,,0.00,Wunderground v.1.15,2013-05-22 01:09:00,
2013-05-21 18:14:00,73.8,15.9,29.55,WSW,240,0.0,0.0,11,0.00,,,0.00,Wunderground v.1.15,2013-05-22 01:14:00,
2013-05-21 18:19:00,73.8,18.0,29.55,WSW,258,0.0,0.0,12,0.00,,,0.00,Wunderground v.1.15,2013-05-22 01:19:00,
2013-05-21 18:25:00,73.4,15.6,29.55,SW,234,0.0,0.0,11,0.00,,,0.00,Wunderground v.1.15,2013-05-22 01:25:00,
2013-05-21 18:31:00,73.3,15.6,29.55,WSW,247,0.0,0.0,11,0.00,,,0.00,Wunderground v.1.15,2013-05-22 01:31:00,
2013-05-21 18:37:00,72.7,15.1,29.55,WSW,256,0.0,0.0,11,0.00,,,0.00,Wunderground v.1.15,2013-05-22 01:37:00,
2013-05-21 18:43:00,72.5,16.9,29.55,SW,230,0.0,0.0,12,0.00,,,0.00,Wunderground v.1.15,2013-05-22 01:43:00,
2013-05-21 18:49:00,72.0,16.6,29.55,WSW,237,0.0,0.0,12,0.00,,,0.00,Wunderground v.1.15,2013-05-22 01:49:00,
2013-05-21 18:55:00,71.5,14.2,29.56,West,259,0.0,0.0,11,0.00,,,0.00,Wunderground v.1.15,2013-05-22 01:55:00,
2013-05-21 19:00:00,71.2,15.9,29.56,SW,233,0.0,0.0,12,0.00,,,0.00,Wunderground v.1.15,2013-05-22 02:00:00,
2013-05-21 19:06:00,70.8,13.6,29.56,SW,234,0.0,0.0,11,0.00,,,0.00,Wunderground v.1.15,2013-05-22 02:06:00,
2013-05-21 19:12:00,70.6,8.9,29.56,WSW,245,0.0,0.0,9,0.00,,,0.00,Wunderground v.1.15,2013-05-22 02:12:00,
2013-05-21 19:17:00,70.3,8.7,29.57,WSW,254,0.0,0.0,9,0.00,,,0.00,Wunderground v.1.15,2013-05-22 02:17:00,
2013-05-21 19:23:00,70.0,8.5,29.57,WSW,258,0.0,0.0,9,0.00,,,0.00,Wunderground v.1.15,2013-05-22 02:23:00,
2013-05-21 19:29:00,69.7,8.3,29.57,WSW,252,0.0,0.0,9,0.00,,,0.00,Wunderground v.1.15,2013-05-22 02:29:00,
2013-05-21 19:35:00,69.4,10.4,29.56,West,265,0.0,0.0,10,0.00,,,0.00,Wunderground v.1.15,2013-05-22 02:35:00,
2013-05-21 19:41:00,68.9,7.7,29.56,WSW,243,0.0,0.0,9,0.00,,,0.00,Wunderground v.1.15,2013-05-22 02:41:00,
2013-05-21 19:47:00,68.4,7.3,29.56,West,269,0.0,0.0,9,0.00,,,0.00,Wunderground v.1.15,2013-05-22 02:47:00,
2013-05-21 19:53:00,68.0,7.0,29.56,West,267,0.0,0.0,9,0.00,,,0.00,Wunderground v.1.15,2013-05-22 02:53:00,
2013-05-21 19:59:00,67.6,6.7,29.56,WSW,255,0.0,0.0,9,0.00,,,0.00,Wunderground v.1.15,2013-05-22 02:59:00,
2013-05-21 20:05:00,67.1,6.3,29.56,West,261,0.0,0.0,9,0.00,,,0.00,Wunderground v.1.15,2013-05-22 03:05:00,
2013-05-21 20:11:00,66.6,5.9,29.56,West,264,0.0,0.0,9,0.00,,,0.00,Wunderground v.1.15,2013-05-22 03:11:00,
2013-05-21 20:16:00,66.3,5.7,29.56,West,271,0.0,0.0,9,0.00,,,0.00,Wunderground v.1.15,2013-05-22 03:16:00,
2013-05-21 20:22:00,66.0,5.5,29.56,WSW,258,0.0,0.0,9,0.00,,,0.00,Wunderground v.1.15,2013-05-22 03:22:00,
2013-05-21 20:28:00,65.8,7.6,29.56,WSW,250,0.0,0.0,10,0.00,,,0.00,Wunderground v.1.15,2013-05-22 03:28:00,
2013-05-21 20:34:00,65.5,7.4,29.56,West,261,1.0,1.0,10,0.00,,,0.00,Wunderground v.1.15,2013-05-22 03:34:00,
2013-05-21 20:40:00,64.7,10.8,29.57,West,279,1.0,1.0,12,0.00,,,0.00,Wunderground v.1.15,2013-05-22 03:40:00,
2013-05-21 20:46:00,63.7,16.6,29.57,West,278,0.0,1.0,16,0.00,,,0.00,Wunderground v.1.15,2013-05-22 03:46:00,
2013-05-21 20:52:00,63.0,17.4,29.57,WNW,300,0.0,0.0,17,0.00,,,0.00,Wunderground v.1.15,2013-05-22 03:52:00,
2013-05-21 20:58:00,62.7,17.2,29.57,WNW,295,0.0,0.0,17,0.00,,,0.00,Wunderground v.1.15,2013-05-22 03:58:00,
2013-05-21 21:01:00,62.5,17.0,29.58,WNW,302,0.0,0.0,17,0.00,,,0.00,Wunderground v.1.15,2013-05-22 04:01:00,
2013-05-21 21:03:00,62.4,17.0,29.58,SW,236,0.0,0.0,17,0.00,,,0.00,Wunderground v.1.15,2013-05-22 04:03:00,
2013-05-21 21:04:00,62.4,17.0,29.58,North,11,0.0,0.0,17,0.00,,,0.00,Wunderground v.1.15,2013-05-22 04:04:00,
2013-05-21 21:09:00,62.1,16.7,29.58,West,274,0.0,0.0,17,0.00,,,0.00,Wunderground v.1.15,2013-05-22 04:09:00,
2013-05-21 21:11:00,62.1,15.3,29.58,West,274,0.0,0.0,16,0.00,,,0.00,Wunderground v.1.15,2013-05-22 04:11:00,
2013-05-21 21:16:00,61.8,15.1,29.58,WNW,295,0.0,0.0,16,0.00,,,0.00,Wunderground v.1.15,2013-05-22 04:16:00,
2013-05-21 21:22:00,61.5,16.2,29.58,WNW,285,0.0,0.0,17,0.00,,,0.00,Wunderground v.1.15,2013-05-22 04:22:00,
2013-05-21 21:27:00,61.2,16.0,29.58,NW,319,0.0,0.0,17,0.00,,,0.00,Wunderground v.1.15,2013-05-22 04:27:00,
2013-05-21 21:33:00,61.0,15.8,29.59,NW,324,0.0,0.0,17,0.00,,,0.00,Wunderground v.1.15,2013-05-22 04:33:00,
2013-05-21 21:39:00,60.6,16.8,29.59,NW,312,0.0,0.0,18,0.00,,,0.00,Wunderground v.1.15,2013-05-22 04:39:00,
2013-05-21 21:45:00,60.3,16.6,29.59,West,281,0.0,0.0,18,0.00,,,0.00,Wunderground v.1.15,2013-05-22 04:45:00,
2013-05-21 21:51:00,59.9,16.2,29.60,NW,313,0.0,0.0,18,0.00,,,0.00,Wunderground v.1.15,2013-05-22 04:51:00,
2013-05-21 21:57:00,59.6,17.2,29.60,NW,311,0.0,0.0,19,0.00,,,0.00,Wunderground v.1.15,2013-05-22 04:57:00,
2013-05-21 22:03:00,59.1,16.8,29.60,North,7,0.0,0.0,19,0.00,,,0.00,Wunderground v.1.15,2013-05-22 05:03:00,
2013-05-21 22:09:00,58.3,17.3,29.60,NE,49,0.0,0.0,20,0.00,,,0.00,Wunderground v.1.15,2013-05-22 05:09:00,
2013-05-21 22:15:00,57.6,16.8,29.61,NE,56,0.0,0.0,20,0.00,,,0.00,Wunderground v.1.15,2013-05-22 05:15:00,
2013-05-21 22:21:00,57.7,16.8,29.61,NE,55,0.0,0.0,20,0.00,,,0.00,Wunderground v.1.15,2013-05-22 05:21:00,
2013-05-21 22:27:00,57.7,16.8,29.61,NW,325,0.0,0.0,20,0.00,,,0.00,Wunderground v.1.15,2013-05-22 05:27:00,
2013-05-21 22:33:00,58.6,16.4,29.61,NW,309,0.0,0.0,19,0.00,,,0.00,Wunderground v.1.15,2013-05-22 05:33:00,
2013-05-21 22:39:00,58.8,16.6,29.61,NNW,330,0.0,0.0,19,0.00,,,0.00,Wunderground v.1.15,2013-05-22 05:39:00,
2013-05-21 22:44:00,58.4,16.2,29.61,NNW,340,0.0,0.0,19,0.00,,,0.00,Wunderground v.1.15,2013-05-22 05:44:00,
2013-05-21 22:50:00,58.4,16.2,29.61,NW,315,0.0,0.0,19,0.00,,,0.00,Wunderground v.1.15,2013-05-22 05:50:00,
2013-05-21 22:56:00,58.2,17.3,29.61,NNW,335,0.0,0.0,20,0.00,,,0.00,Wunderground v.1.15,2013-05-22 05:56:00,
2013-05-21 23:02:00,57.8,16.9,29.61,NW,312,0.0,0.0,20,0.00,,,0.00,Wunderground v.1.15,2013-05-22 06:02:00,
2013-05-21 23:08:00,57.5,16.7,29.61,NW,323,0.0,0.0,20,0.00,,,0.00,Wunderground v.1.15,2013-05-22 06:08:00,
2013-05-21 23:14:00,57.2,17.6,29.61,NW,315,0.0,0.0,21,0.00,,,0.00,Wunderground v.1.15,2013-05-22 06:14:00,
2013-05-21 23:20:00,57.2,16.4,29.61,NNW,333,0.0,0.0,20,0.00,,,0.00,Wunderground v.1.15,2013-05-22 06:20:00,
2013-05-21 23:26:00,57.1,16.3,29.61,NNW,328,0.0,0.0,20,0.00,,,0.00,Wunderground v.1.15,2013-05-22 06:26:00,
2013-05-21 23:32:00,57.1,16.3,29.60,NW,319,0.0,0.0,20,0.00,,,0.00,Wunderground v.1.15,2013-05-22 06:32:00,
2013-05-21 23:37:00,56.8,17.2,29.60,WNW,287,0.0,0.0,21,0.00,,,0.00,Wunderground v.1.15,2013-05-22 06:37:00,
2013-05-21 23:43:00,56.6,17.1,29.60,NW,321,0.0,0.0,21,0.00,,,0.00,Wunderground v.1.15,2013-05-22 06:43:00,
2013-05-21 23:49:00,56.2,16.7,29.60,WNW,303,0.0,0.0,21,0.00,,,0.00,Wunderground v.1.15,2013-05-22 06:49:00,
2013-05-21 23:55:00,56.0,16.6,29.60,NNW,335,0.0,0.0,21,0.00,,,0.00,Wunderground v.1.15,2013-05-22 06:55:00,